Location: 22
(39.7117°N, 89.5929°W)
Time: 07:59:26
(UTC-05:00)

A-11 Canister half - Pass Details

Date: 01 February 2023
Orbit: 1526 x 1682 km, 47.3° (Epoch: 01 April)

Event Time Altitude Azimuth Distance (km) Brightness Sun altitude
Rises 05:24:14 0° 220° (SW) 4,673 11.2 -19.9°
Reaches altitude 10° 05:27:19 10° 216° (SW) 3,686 10.7 -19.3°
Maximum altitude 05:36:20 59° 140° (SE) 1,724 9.5 -17.5°
Drops below altitude 10° 05:45:28 10° 64° (ENE) 3,729 11.8 -15.8°
Sets 05:48:36 0° 61° (ENE) 4,731 12.4 -15.2°
